RYR7KA LGRP-LCPH

Flight info

Callsign RYR7KA
Flight time 0h 47m
Altitude 35000
Route IRBAX UL995 ULFIT UM978 TOSKA DCT TOBAL
Aircraft B738/M-SDE2E3FGHIRWXY/LB1

Departure

Time 2026-05-05 17:42
Airport Rhodes International Airport "Diagoras" (LGRP)

Arrival

Time 2026-05-05 18:30
Airport Paphos International Airport (LCPH)
Time Latitude Longitude Altitude Speed Heading
2026-05-05 17:22 36.40375 28.09139 50 ft 0 kts 158°
2026-05-05 17:33 36.40388 28.09132 28 ft 4 kts 162°
2026-05-05 17:33 36.40409 28.09123 28 ft 4 kts 146°
2026-05-05 17:33 36.40423 28.09100 28 ft 4 kts 92°
2026-05-05 17:34 36.40419 28.09070 28 ft 2 kts 70°
2026-05-05 17:34 36.40419 28.09068 28 ft 0 kts 70°
2026-05-05 17:36 36.40420 28.09071 28 ft 2 kts 70°
2026-05-05 17:37 36.40428 28.09100 28 ft 5 kts 70°
2026-05-05 17:37 36.40445 28.09158 28 ft 9 kts 70°
2026-05-05 17:37 36.40470 28.09242 28 ft 12 kts 69°
2026-05-05 17:37 36.40509 28.09341 28 ft 13 kts 52°
2026-05-05 17:38 36.40579 28.09413 28 ft 13 kts 42°
2026-05-05 17:38 36.40616 28.09515 28 ft 14 kts 70°
2026-05-05 17:38 36.40648 28.09626 29 ft 13 kts 70°
2026-05-05 17:38 36.40680 28.09736 24 ft 14 kts 70°
2026-05-05 17:39 36.40716 28.09855 23 ft 15 kts 70°
2026-05-05 17:39 36.40749 28.09970 21 ft 14 kts 70°
2026-05-05 17:39 36.40782 28.10082 19 ft 14 kts 70°
2026-05-05 17:39 36.40815 28.10194 20 ft 13 kts 70°
2026-05-05 17:40 36.40846 28.10301 22 ft 13 kts 70°
2026-05-05 17:40 36.40878 28.10401 24 ft 11 kts 62°
2026-05-05 17:40 36.40941 28.10424 23 ft 11 kts 336°
2026-05-05 17:40 36.40997 28.10364 21 ft 11 kts 307°
2026-05-05 17:41 36.41022 28.10284 22 ft 10 kts 255°
2026-05-05 17:41 36.41009 28.10235 25 ft 6 kts 250°
2026-05-05 17:41 36.40926 28.09951 22 ft 70 kts 249°
2026-05-05 17:41 36.40683 28.09127 30 ft 130 kts 250°
2026-05-05 17:42 36.40373 28.07966 382 ft 149 kts 254°
2026-05-05 17:42 36.40012 28.06782 1139 ft 145 kts 253°
2026-05-05 17:42 36.39558 28.05529 1457 ft 177 kts 253°
2026-05-05 17:42 36.39092 28.04021 1946 ft 194 kts 256°
2026-05-05 17:43 36.38643 28.02373 2390 ft 208 kts 258°
2026-05-05 17:43 36.38172 28.00629 2843 ft 219 kts 258°
2026-05-05 17:43 36.37677 27.98834 3548 ft 221 kts 258°
2026-05-05 17:43 36.37170 27.97024 4248 ft 224 kts 258°
2026-05-05 17:44 36.36651 27.95194 4956 ft 225 kts 258°
2026-05-05 17:44 36.36130 27.93371 5607 ft 230 kts 258°
2026-05-05 17:44 36.35578 27.91487 6301 ft 236 kts 253°
2026-05-05 17:44 36.34498 27.89773 6547 ft 277 kts 218°
2026-05-05 17:45 36.32595 27.89004 6892 ft 303 kts 182°
2026-05-05 17:45 36.30509 27.89472 7553 ft 309 kts 155°
2026-05-05 17:45 36.28702 27.90886 8347 ft 307 kts 133°
2026-05-05 17:45 36.27281 27.92851 9170 ft 307 kts 123°
2026-05-05 17:46 36.25994 27.94995 9828 ft 314 kts 121°
2026-05-05 17:46 36.24715 27.97228 10390 ft 325 kts 121°
2026-05-05 17:46 36.23363 27.99590 10671 ft 345 kts 121°
2026-05-05 17:46 36.21936 28.02034 11270 ft 354 kts 122°
2026-05-05 17:47 36.20488 28.04468 12002 ft 358 kts 122°
2026-05-05 17:47 36.18995 28.06945 12812 ft 361 kts 123°
2026-05-05 17:47 36.17474 28.09444 13605 ft 366 kts 123°
2026-05-05 17:47 36.15926 28.11972 14331 ft 371 kts 123°
2026-05-05 17:48 36.14356 28.14524 15067 ft 375 kts 123°
2026-05-05 17:48 36.12767 28.17103 15826 ft 379 kts 123°
2026-05-05 17:48 36.11159 28.19705 16580 ft 382 kts 124°
2026-05-05 17:48 36.09535 28.22330 17303 ft 387 kts 124°
2026-05-05 17:49 36.07888 28.24990 18041 ft 391 kts 124°
2026-05-05 17:49 36.06223 28.27676 18717 ft 395 kts 124°
2026-05-05 17:49 36.04567 28.30347 19339 ft 399 kts 124°
2026-05-05 17:49 36.02899 28.33106 19973 ft 402 kts 121°
2026-05-05 17:50 36.01336 28.35983 20594 ft 405 kts 120°
2026-05-05 17:50 35.99766 28.38899 21190 ft 411 kts 121°
2026-05-05 17:50 35.98131 28.41830 21718 ft 417 kts 122°
2026-05-05 17:50 35.96427 28.44752 22330 ft 421 kts 123°
2026-05-05 17:51 35.94673 28.47660 22981 ft 424 kts 124°
2026-05-05 17:51 35.92882 28.50563 23579 ft 427 kts 124°
2026-05-05 17:51 35.91057 28.53480 24063 ft 431 kts 125°
2026-05-05 17:51 35.89211 28.56409 24542 ft 434 kts 125°
2026-05-05 17:52 35.87349 28.59352 25033 ft 437 kts 125°
2026-05-05 17:52 35.85472 28.62318 25520 ft 440 kts 125°
2026-05-05 17:52 35.83584 28.65299 26000 ft 443 kts 126°
2026-05-05 17:52 35.81682 28.68303 26470 ft 446 kts 125°
2026-05-05 17:53 35.79762 28.71334 26871 ft 451 kts 126°
2026-05-05 17:53 35.77827 28.74387 27310 ft 454 kts 126°
2026-05-05 17:53 35.75903 28.77419 27780 ft 456 kts 126°
2026-05-05 17:53 35.73944 28.80502 28227 ft 459 kts 126°
2026-05-05 17:54 35.71971 28.83607 28658 ft 462 kts 126°
2026-05-05 17:54 35.69988 28.86724 29076 ft 465 kts 126°
2026-05-05 17:54 35.67988 28.89864 29483 ft 468 kts 126°
2026-05-05 17:54 35.65978 28.93019 29885 ft 470 kts 126°
2026-05-05 17:55 35.63958 28.96186 30286 ft 472 kts 126°
2026-05-05 17:55 35.61929 28.99363 30650 ft 473 kts 126°
2026-05-05 17:55 35.59896 29.02544 31112 ft 472 kts 126°
2026-05-05 17:55 35.57873 29.05705 31650 ft 469 kts 126°
2026-05-05 17:56 35.55865 29.08840 32151 ft 467 kts 126°
2026-05-05 17:56 35.53886 29.11928 32571 ft 466 kts 126°
2026-05-05 17:56 35.51880 29.15056 32980 ft 466 kts 127°
2026-05-05 17:56 35.49879 29.18173 33413 ft 465 kts 127°
2026-05-05 17:57 35.47880 29.21284 33868 ft 463 kts 127°
2026-05-05 17:57 35.45891 29.24377 34261 ft 462 kts 127°
2026-05-05 17:57 35.43897 29.27474 34517 ft 464 kts 127°
2026-05-05 17:57 35.41888 29.30594 34675 ft 468 kts 127°
2026-05-05 17:58 35.39865 29.33731 34958 ft 469 kts 127°
2026-05-05 17:58 35.35783 29.40051 34992 ft 474 kts 127°
2026-05-05 17:59 35.31753 29.46280 34984 ft 465 kts 127°
2026-05-05 17:59 35.27733 29.52484 34983 ft 465 kts 127°
2026-05-05 18:00 35.23700 29.58696 35000 ft 467 kts 127°
2026-05-05 18:00 35.19653 29.64920 35001 ft 468 kts 127°
2026-05-05 18:01 35.15590 29.71162 34996 ft 470 kts 127°
2026-05-05 18:01 35.11511 29.77410 34991 ft 471 kts 128°
2026-05-05 18:02 35.07450 29.83618 35007 ft 471 kts 128°
2026-05-05 18:02 35.03352 29.89874 34995 ft 472 kts 128°
2026-05-05 18:03 34.99304 29.96106 34969 ft 462 kts 123°
2026-05-05 18:03 34.97792 29.99471 34978 ft 445 kts 108°
2026-05-05 18:03 34.96889 30.02992 34971 ft 427 kts 97°
2026-05-05 18:03 34.96521 30.06494 34969 ft 407 kts 85°
2026-05-05 18:04 34.96503 30.09912 34993 ft 402 kts 85°
2026-05-05 18:04 34.96474 30.16725 35004 ft 408 kts 85°
2026-05-05 18:05 34.96416 30.23677 35002 ft 412 kts 85°
2026-05-05 18:05 34.96329 30.30694 34984 ft 414 kts 86°
2026-05-05 18:06 34.96228 30.37617 34966 ft 404 kts 85°
2026-05-05 18:06 34.96130 30.44481 34989 ft 407 kts 85°
2026-05-05 18:07 34.96034 30.51353 34988 ft 410 kts 86°
2026-05-05 18:07 34.95924 30.58323 34988 ft 413 kts 86°
2026-05-05 18:08 34.95811 30.65333 34981 ft 414 kts 86°
2026-05-05 18:08 34.95691 30.72354 34976 ft 414 kts 86°
2026-05-05 18:09 34.95568 30.79351 34975 ft 412 kts 86°
2026-05-05 18:09 34.95444 30.86319 34975 ft 410 kts 86°
2026-05-05 18:10 34.95316 30.93241 34969 ft 407 kts 86°
2026-05-05 18:10 34.95185 31.00130 34969 ft 406 kts 86°
2026-05-05 18:11 34.95051 31.06958 34966 ft 404 kts 86°
2026-05-05 18:11 34.94983 31.10369 34703 ft 402 kts 86°
2026-05-05 18:11 34.94916 31.13804 34010 ft 411 kts 85°
2026-05-05 18:11 34.94850 31.17374 32731 ft 433 kts 85°
2026-05-05 18:12 34.94779 31.21088 32366 ft 444 kts 85°
2026-05-05 18:12 34.94702 31.24899 31782 ft 454 kts 85°
2026-05-05 18:12 34.94619 31.28771 31012 ft 459 kts 85°
2026-05-05 18:12 34.94532 31.32676 30282 ft 463 kts 85°
2026-05-05 18:13 34.94442 31.36615 29484 ft 466 kts 85°
2026-05-05 18:13 34.94351 31.40571 28662 ft 468 kts 85°
2026-05-05 18:13 34.94258 31.44547 27858 ft 470 kts 85°
2026-05-05 18:13 34.94165 31.48531 27074 ft 471 kts 86°
2026-05-05 18:14 34.94071 31.52522 26331 ft 471 kts 86°
2026-05-05 18:14 34.93977 31.56462 25599 ft 472 kts 86°
2026-05-05 18:14 34.93881 31.60457 24886 ft 472 kts 86°
2026-05-05 18:14 34.93783 31.64453 24179 ft 471 kts 86°
2026-05-05 18:15 34.93684 31.68442 23473 ft 471 kts 86°
2026-05-05 18:15 34.93584 31.72425 22672 ft 470 kts 86°
2026-05-05 18:15 34.93483 31.76400 21883 ft 468 kts 86°
2026-05-05 18:15 34.93380 31.80354 21143 ft 466 kts 87°
2026-05-05 18:16 34.93278 31.84293 20384 ft 464 kts 87°
2026-05-05 18:16 34.93177 31.88219 19648 ft 461 kts 87°
2026-05-05 18:16 34.93073 31.92070 18922 ft 449 kts 87°
2026-05-05 18:16 34.92969 31.95830 18210 ft 439 kts 87°
2026-05-05 18:17 34.92867 31.99502 17405 ft 429 kts 87°
2026-05-05 18:17 34.92767 32.03046 16638 ft 420 kts 88°
2026-05-05 18:17 34.92668 32.06572 15880 ft 412 kts 88°
2026-05-05 18:17 34.92557 32.10029 15134 ft 406 kts 91°
2026-05-05 18:18 34.92010 32.13381 14383 ft 404 kts 110°
2026-05-05 18:18 34.90647 32.16343 13690 ft 398 kts 125°
2026-05-05 18:18 34.89036 32.19043 12893 ft 391 kts 126°
2026-05-05 18:18 34.87434 32.21684 12119 ft 384 kts 126°
2026-05-05 18:19 34.85887 32.24305 11354 ft 378 kts 124°
2026-05-05 18:19 34.84400 32.26905 10623 ft 372 kts 123°
2026-05-05 18:19 34.82971 32.29453 10261 ft 355 kts 123°
2026-05-05 18:19 34.81604 32.31905 9747 ft 345 kts 123°
2026-05-05 18:20 34.80313 32.34219 9597 ft 325 kts 123°
2026-05-05 18:20 34.79471 32.35730 9392 ft 316 kts 123°
2026-05-05 18:20 34.77868 32.38609 8957 ft 304 kts 123°
2026-05-05 18:20 34.76688 32.40726 8591 ft 302 kts 124°
2026-05-05 18:21 34.75503 32.42851 8088 ft 304 kts 124°
2026-05-05 18:21 34.74317 32.44975 7582 ft 303 kts 124°
2026-05-05 18:21 34.73137 32.47088 7081 ft 301 kts 124°
2026-05-05 18:21 34.71965 32.49183 6594 ft 299 kts 124°
2026-05-05 18:22 34.70791 32.51258 6118 ft 297 kts 127°
2026-05-05 18:22 34.69526 32.53141 6043 ft 279 kts 131°
2026-05-05 18:22 34.68262 32.54900 5730 ft 273 kts 132°
2026-05-05 18:22 34.67055 32.56576 5493 ft 261 kts 131°
2026-05-05 18:23 34.65901 32.58194 5284 ft 248 kts 131°
2026-05-05 18:23 34.64792 32.59762 5076 ft 240 kts 131°
2026-05-05 18:23 34.63722 32.61281 4870 ft 233 kts 131°
2026-05-05 18:23 34.62687 32.62754 4684 ft 225 kts 131°
2026-05-05 18:24 34.61686 32.64178 4462 ft 219 kts 131°
2026-05-05 18:24 34.60882 32.65718 4220 ft 216 kts 103°
2026-05-05 18:24 34.60936 32.67479 4019 ft 208 kts 65°
2026-05-05 18:24 34.61720 32.68852 3838 ft 192 kts 33°
2026-05-05 18:25 34.62458 32.69395 3696 ft 184 kts 14°
2026-05-05 18:25 34.63270 32.69617 3550 ft 178 kts 356°
2026-05-05 18:25 34.64814 32.69130 3257 ft 171 kts 324°
2026-05-05 18:25 34.65613 32.68111 3080 ft 167 kts 293°
2026-05-05 18:26 34.66265 32.66441 2896 ft 167 kts 299°
2026-05-05 18:26 34.66761 32.65177 2664 ft 163 kts 292°
2026-05-05 18:26 34.67028 32.64322 2506 ft 158 kts 291°
2026-05-05 18:26 34.67546 32.62606 2259 ft 168 kts 290°
2026-05-05 18:27 34.67819 32.61697 2081 ft 170 kts 291°
2026-05-05 18:27 34.68230 32.60336 1837 ft 173 kts 291°
2026-05-05 18:27 34.68636 32.58990 1623 ft 167 kts 291°
2026-05-05 18:27 34.69024 32.57700 1407 ft 158 kts 292°
2026-05-05 18:28 34.69729 32.55366 1011 ft 142 kts 291°
2026-05-05 18:28 34.70066 32.54253 821 ft 141 kts 291°
2026-05-05 18:28 34.70391 32.53116 656 ft 143 kts 291°
2026-05-05 18:29 34.70747 32.51968 455 ft 146 kts 294°
2026-05-05 18:29 34.71097 32.50812 265 ft 145 kts 295°
2026-05-05 18:29 34.71451 32.49673 71 ft 142 kts 292°
2026-05-05 18:29 34.71764 32.48663 43 ft 101 kts 289°
2026-05-05 18:30 34.71876 32.48302 42 ft 15 kts 300°
2026-05-05 18:30 34.71891 32.48236 45 ft 3 kts 212°
2026-05-05 18:30 34.71880 32.48258 43 ft 5 kts 104°
2026-05-05 18:30 34.71869 32.48311 44 ft 8 kts 107°
2026-05-05 18:31 34.71848 32.48380 43 ft 10 kts 111°
2026-05-05 18:31 34.71790 32.48413 45 ft 11 kts 189°
2026-05-05 18:31 34.71709 32.48380 45 ft 13 kts 200°
2026-05-05 18:31 34.71615 32.48335 45 ft 16 kts 200°
2026-05-05 18:32 34.71509 32.48288 45 ft 16 kts 200°
2026-05-05 18:32 34.71420 32.48265 45 ft 12 kts 155°
2026-05-05 18:32 34.71383 32.48354 43 ft 12 kts 110°
2026-05-05 18:32 34.71355 32.48446 42 ft 12 kts 110°
2026-05-05 18:33 34.71356 32.48538 43 ft 11 kts 67°
2026-05-05 18:33 34.71388 32.48624 45 ft 11 kts 65°
2026-05-05 18:33 34.71409 32.48679 44 ft 6 kts 65°
2026-05-05 18:33 34.71426 32.48726 45 ft 6 kts 65°
2026-05-05 18:34 34.71444 32.48773 45 ft 6 kts 65°
2026-05-05 18:34 34.71448 32.48820 45 ft 6 kts 115°
2026-05-05 18:34 34.71413 32.48849 45 ft 6 kts 154°
2026-05-05 18:34 34.71387 32.48865 45 ft 0 kts 152°